Regional Weather Roundup
Issued by NWS

Home | Current Version | Previous Version | Graphics & Text | Print | Product List | Glossary On
Versions: 1 2 3 4 5 6 7 8 9 10 11 12 13 14 15 16 17 18 19 20 21 22 23 24 25 26 27 28 29 30 31 32 33 34 35 36 37 38 39 40 41 42 43 44 45 46 47 48 49 50
000
ASUS43 KLMK 232010
RWRKY
KENTUCKY REGIONAL WEATHER ROUNDUP
NATIONAL WEATHER SERVICE LOUISVILLE KY
400 PM EDT THU OCT 23 2014

NOTE "FAIR" INDICATES FEW OR NO CLOUDS BELOW 12,000 FEET
WITH NO SIGNIFICANT WEATHER AND/OR OBSTRUCTIONS TO VISIBILITY.

KYZ001>023-026-027-061>063-070>075-232100-
WESTERN AND SOUTH CENTRAL KENTUCKY

CITY           SKY/WX    TMP DP  RH WIND       PRES   REMARKS
PADUCAH        CLOUDY    61  45  55 CALM      30.14F
HENDERSON      MOSUNNY  N/A N/A N/A CALM      30.14S
OWENSBORO      SUNNY     62  43  49 NW5       30.15F
HOPKINSVILLE   CLOUDY    61  42  48 E1        30.13F
BOWLING GREEN  MOSUNNY   63  40  42 VRB5      30.14F
GLASGOW        MOSUNNY   61  41  47 NE3       30.13F
$$

KYZ024-025-028>034-038-045-046-053-232100-
NORTH CENTRAL KENTUCKY

CITY           SKY/WX    TMP DP  RH WIND       PRES   REMARKS
LOUISVILLE/SDF PTSUNNY   63  42  46 S8        30.14F
LOUISVILLE/LOU SUNNY     62  42  47 E6        30.15F
FORT KNOX      SUNNY     62  40  45 E3        30.13S
$$

KYZ035>037-039>044-047>052-055>060-089>105-232100-
NORTHEAST KENTUCKY

CITY           SKY/WX    TMP DP  RH WIND       PRES   REMARKS
LEXINGTON      SUNNY     62  44  51 VRB6      30.15F
COVINGTON      MOSUNNY   61  39  44 CALM      30.15
FRANKFORT      SUNNY     61  41  47 CALM      30.14F
$$

KYZ054-064>069-076>088-106>120-232100-
SOUTHEAST KENTUCKY

CITY           SKY/WX    TMP DP  RH WIND       PRES   REMARKS
JACKSON        SUNNY     58  39  49 CALM      30.14F
LONDON         SUNNY     63  39  41 N7        30.13F
SOMERSET       SUNNY     61  39  44 CALM      30.15S
MIDDLESBORO    SUNNY     63  40  43 N5        30.11F
MONTICELLO     CLEAR     63  42  46 VRB6      30.15F
$$




USA.gov is the U.S. government's official web portal to all federal, state and local government web resources and services.